Погода в Мекенской

Россия / Чеченская Республика     43°39′56″N   45°22′57″E
темп.,
°C
ветер,
м/с
пор.,
м/с
влажн.,
%
обл.,
%
осадки,
мм/ч
давл.,
гПа
погр.,
м
12 мая, ср
ср1200:00+9всв35780 0.0 1016137
03:00+8вюв11850 0.0 101612
06:00+9всв12830 0.0 1016167
09:00+15всв34580 0.0 1016845
12:00+19вюв44470 0.0 10161275
15:00+22вюв34410 0.0 10151605
18:00+21в23480 0.0 1014133
21:00+14вюв48715 0.0 1015194
13 мая, чт
чт1300:00+12юв3675100 0.0 1014127
03:00+11вюв33795 0.0 101451
06:00+12вюв35780 0.0 1014159
09:00+19в34550 0.0 1014535
12:00+24в44430 0.0 1014920
15:00+27в44390 0.0 10131158
18:00+24вюв57550 0.0 1013299
21:00+17вюв367120 0.0 1015101
14 мая, пт
пт1400:00+15вюв33753 0.0 101440
03:00+14в22775 0.0 101425
06:00+15вюв12730 0.0 101476
09:00+22всв22542 0.0 1013418
12:00+28всв33435 0.0 1012851
15:00+31вюв67325 0.0 10111239
18:00+25в611430 0.0 1011474
21:00+19в48490 0.0 1011201
15 мая, сб
сб1500:00+17юв35610 0.0 101195
03:00+17в22520 0.0 101115
06:00+18зюз01540 0.0 101145
09:00+24сз22490 0.0 1012487
12:00+29с11402 0.0 10121023
15:00+31в33330 0.0 10101696
18:00+26в610324 0.0 1011350
21:00+19в364390 0.0 1012145
16 мая, вс
вс1600:00+17в234550 0.0 101036
03:00+17в224794 0.0 101021
06:00+18в12524 0.0 101070
09:00+24всв23360 0.0 1009488
12:00+30вюв68320 0.0 10071159
15:00+30вюв1012254 0.0 10051235
18:00+25в816360 0.0 1004683
21:00+22в614325 0.0 1004508